User: anonymous   Login
Location: Arrodets-la-Barthe
(43.0306°N, 0.2829°E)
Time: 11:03:26
(UTC+00:00)
Language:

Cosmos 2278 - Orbit

View from above orbital plane
View from above orbital plane
View from above satellite
View from above satellite

Ground track
Ground track

The orbit data is extracted from the following two-line orbital elements,

1 23087U 94023A   22276.21991444 -.00000202  00000-0 -81638-4 0  9997
2 23087  71.0521 276.4929 0007382 159.5529 200.5890 14.13884575467853
Epoch (UTC): 03 October 2022 05:16:40
Eccentricity: 0.0007382
inclination: 71.0521°
perigee height: 841 km
apogee height: 851 km
right ascension of ascending node: 276.4929°
argument of perigee: 159.5529°
revolutions per day: 14.13884575
mean anomaly at epoch: 200.5890°
orbit number at epoch: 46785

The dashed part of the orbit path shows where the satellite is in the earth's shadow,  

DLR